User: anonymous   Login
Location: Maiden_LMO
(35.5760°N, 81.2120°W)
Time: 04:57:15
(UTC-04:00)
Language:

Cosmos 2278 Rocket - Orbit

View from above orbital plane
View from above orbital plane
View from above satellite
View from above satellite

Ground track
Ground track

The orbit data is extracted from the following two-line orbital elements,

1 23088U 94023B   17292.43916012 +.00000168 +00000-0 +11233-3 0  9994
2 23088 071.0017 021.2687 0005489 269.8737 090.1756 14.14657034212843
Epoch (UTC): 19 October 2017 10:32:23
Eccentricity: 0.0005489
inclination: 71.0017°
perigee height: 839 km
apogee height: 847 km
right ascension of ascending node: 21.2687°
argument of perigee: 269.8737°
revolutions per day: 14.14657034
mean anomaly at epoch: 90.1756°
orbit number at epoch: 21284

The dashed part of the orbit path shows where the satellite is in the earth's shadow,  

DLR